Hancock, MI

5:12 PM EDT on August 26, 2016 (GMT -0400)
Houghton County Memorial

Weather History for KCMX - February, 2013

Change the Weather History Date:

Sunday, February 10, 2013

  Actual Average Record
Temperature  
Mean Temperature 24 °F -  
Max Temperature 30 °F 21 °F 46 °F (2009)
Min Temperature 19 °F 8 °F -16 °F (1962)
Degree Days  
Heating Degree Days 40    
Moisture  
Dew Point 25 °F    
Average Humidity 93    
Maximum Humidity 100    
Minimum Humidity 85    
Precipitation  
Precipitation 0.23 in - - ()
Sea Level Pressure  
Sea Level Pressure 29.70 in    
Wind  
Wind Speed 12 mph (ESE)    
Max Wind Speed 24 mph    
Max Gust Speed 38 mph    
Visibility 3 miles    
Events Fog , Rain , Snow    
Averages and records for this station are not official NWS values.
T = Trace of Precipitation, MM = Missing Value Source: NWS Daily Summary

Daily Weather History Graph

Daily Weather History Graph

Search for Another Location

Airport or City:

Trip Planner

Search our weather history database for the weather conditions in past years. The results will help you decide how hot, cold, wet, or windy it might be!

Date:

Astronomy

Feb. 10, 2013 Rise Set
Actual Time 8:06 AM EST 6:10 PM EST
Civil Twilight 7:34 AM EST 6:42 PM EST
Nautical Twilight 6:58 AM EST 7:18 PM EST
Astronomical Twilight 6:23 AM EST 7:54 PM EST
Moon 7:50 AM EST (2/10) 7:08 PM EST (2/10)
Length of Visible Light 11h 08m
Length of Day
10h 04m
New Moon, 0% of the Moon is Illuminated
Feb 10
New Moon
Feb 17
First Quarter
Feb 25
Full
Mar 4
Last Quarter
Mar 11
New

Hourly Weather History & Observations

Time (EST) Temp. Windchill Dew Point Humidity Pressure Visibility Wind Dir Wind Speed Gust Speed Precip Events Conditions
12:53 AM 21.0 °F 12.4 °F 17.1 °F 85% 30.08 in 10.0 mi South 6.9 mph - N/A   Overcast
1:53 AM 21.0 °F 14.6 °F 17.1 °F 85% 30.07 in 10.0 mi SSE 4.6 mph - N/A   Overcast
2:53 AM 21.0 °F 14.6 °F 17.1 °F 85% 30.06 in 10.0 mi South 4.6 mph - N/A   Overcast
3:53 AM 21.0 °F 16.2 °F 17.1 °F 85% 30.05 in 10.0 mi South 3.5 mph - N/A   Overcast
4:53 AM 21.0 °F 13.4 °F 17.1 °F 85% 30.05 in 9.0 mi SSW 5.8 mph - N/A   Overcast
5:53 AM 21.0 °F - 17.1 °F 85% 30.04 in 8.0 mi Calm Calm - N/A   Overcast
6:53 AM 19.9 °F 14.9 °F 18.0 °F 92% 30.04 in 7.0 mi SSE 3.5 mph - N/A   Overcast
7:53 AM 19.0 °F 12.3 °F 17.1 °F 92% 29.99 in 7.0 mi East 4.6 mph - N/A   Mostly Cloudy
8:05 AM 19.4 °F 12.8 °F 17.6 °F 93% 29.94 in 7.0 mi East 4.6 mph - N/A   Scattered Clouds
8:39 AM 19.4 °F 11.5 °F 17.6 °F 93% 29.94 in 4.0 mi East 5.8 mph - N/A   Mostly Cloudy
8:53 AM 19.0 °F 12.3 °F 17.1 °F 92% 30.00 in 5.0 mi East 4.6 mph - N/A   Overcast
9:53 AM 21.9 °F 12.5 °F 19.0 °F 89% 29.96 in 6.0 mi East 8.1 mph - N/A   Overcast
10:53 AM 24.1 °F 11.5 °F 21.0 °F 88% 29.91 in 7.0 mi East 15.0 mph - N/A   Overcast
11:53 AM 25.0 °F 14.2 °F 21.9 °F 88% 29.93 in 5.0 mi East 11.5 mph - N/A   Overcast
12:09 PM 24.8 °F 14.6 °F 21.2 °F 86% 29.88 in 6.0 mi ESE 10.4 mph - N/A   Overcast
12:48 PM 24.8 °F 13.4 °F 23.0 °F 93% 29.85 in 5.0 mi ESE 12.7 mph - N/A   Overcast
12:53 PM 25.0 °F 13.1 °F 23.0 °F 92% 29.90 in 5.0 mi ESE 13.8 mph - N/A   Overcast
1:03 PM 26.6 °F 16.2 °F 24.8 °F 93% 29.84 in 4.0 mi East 11.5 mph - N/A   Overcast
1:39 PM 26.6 °F 14.7 °F 24.8 °F 93% 29.79 in 2.5 mi East 15.0 mph - N/A   Overcast
1:53 PM 27.0 °F 15.2 °F 26.1 °F 96% 29.83 in 2.5 mi ESE 15.0 mph - N/A   Overcast
2:18 PM 28.4 °F 15.4 °F 26.6 °F 93% 29.76 in 1.8 mi East 19.6 mph 24.2 mph N/A   Overcast
2:53 PM 28.0 °F 15.7 °F 27.0 °F 96% 29.78 in 0.5 mi ESE 17.3 mph 26.5 mph N/A Fog Light Freezing Fog
3:00 PM 28.4 °F 15.8 °F 26.6 °F 93% 29.72 in 0.2 mi East 18.4 mph 24.2 mph N/A Fog Light Freezing Fog
3:27 PM 28.4 °F 15.8 °F 26.6 °F 93% 29.70 in 0.8 mi East 18.4 mph 26.5 mph 0.00 in Snow Light Snow
3:36 PM 28.4 °F 15.8 °F 26.6 °F 93% 29.68 in 1.0 mi East 18.4 mph 26.5 mph 0.00 in Snow Light Snow
3:53 PM 28.9 °F 16.9 °F 28.0 °F 96% 29.71 in 1.2 mi East 17.3 mph 25.3 mph 0.00 in Snow Light Snow
4:20 PM 28.4 °F 16.2 °F 28.4 °F 100% 29.63 in 2.0 mi East 17.3 mph 26.5 mph 0.00 in   Overcast
4:34 PM 28.4 °F 14.7 °F 28.4 °F 100% 29.63 in 1.2 mi East 21.9 mph 31.1 mph 0.00 in Snow Light Snow
4:50 PM 28.4 °F 15.4 °F 28.4 °F 100% 29.61 in 2.0 mi East 19.6 mph 34.5 mph 0.00 in Rain Light Freezing Rain
4:53 PM 30.0 °F 17.2 °F 28.0 °F 92% 29.66 in 1.8 mi ESE 20.7 mph 34.5 mph 0.00 in Rain Light Freezing Rain
5:06 PM 28.4 °F 16.2 °F 28.4 °F 100% 29.60 in 2.0 mi East 17.3 mph 35.7 mph 0.01 in Rain Light Freezing Rain
5:16 PM 28.4 °F 14.7 °F 28.4 °F 100% 29.60 in 1.8 mi East 21.9 mph 31.1 mph 0.01 in Snow Light Snow
5:32 PM 28.4 °F 15.1 °F 28.4 °F 100% 29.57 in 0.8 mi East 20.7 mph 31.1 mph 0.03 in Snow Light Snow
5:42 PM 28.4 °F 15.1 °F 28.4 °F 100% 29.57 in 1.2 mi East 20.7 mph 32.2 mph 0.03 in Snow Light Snow
5:53 PM 30.0 °F 17.5 °F 28.0 °F 92% 29.60 in 2.0 mi East 19.6 mph 29.9 mph 0.04 in Rain Light Freezing Rain
6:00 PM 28.4 °F 14.4 °F 28.4 °F 100% 29.55 in 1.8 mi East 23.0 mph 31.1 mph 0.00 in Rain Light Freezing Rain
6:16 PM 30.2 °F 17.4 °F 28.4 °F 93% 29.54 in 2.5 mi East 20.7 mph 29.9 mph 0.02 in Rain Light Freezing Rain
6:22 PM 30.2 °F 17.1 °F 28.4 °F 93% 29.52 in 1.8 mi East 21.9 mph 36.8 mph 0.04 in Snow Light Snow
6:41 PM 30.2 °F 16.5 °F 28.4 °F 93% 29.51 in 2.5 mi East 24.2 mph 38.0 mph 0.07 in Rain Light Freezing Rain
6:51 PM 30.2 °F 17.4 °F 28.4 °F 93% 29.50 in 1.8 mi East 20.7 mph 33.4 mph 0.09 in Snow Light Snow
6:53 PM 30.0 °F 17.2 °F 28.9 °F 96% 29.55 in 1.5 mi East 20.7 mph 33.4 mph 0.10 in Snow Light Snow
7:18 PM 30.2 °F 17.8 °F 28.4 °F 93% 29.52 in 3.0 mi ESE 19.6 mph 33.4 mph 0.03 in Snow Light Snow
7:30 PM 30.2 °F 18.1 °F 28.4 °F 93% 29.52 in 2.5 mi ESE 18.4 mph 38.0 mph 0.03 in Snow Light Snow
7:48 PM 30.2 °F 18.9 °F 28.4 °F 93% 29.52 in 1.2 mi ESE 16.1 mph 25.3 mph 0.04 in Snow Light Snow
7:53 PM 30.0 °F 20.0 °F 28.9 °F 96% 29.56 in 1.2 mi ESE 12.7 mph 25.3 mph 0.04 in Snow Light Snow
8:06 PM 30.2 °F 20.2 °F 28.4 °F 93% 29.50 in 0.5 mi ESE 12.7 mph 24.2 mph 0.01 in Fog , Snow Snow
8:21 PM 30.2 °F 20.2 °F 28.4 °F 93% 29.49 in 0.2 mi East 12.7 mph 21.9 mph 0.02 in Fog , Snow Heavy Snow
8:30 PM 30.2 °F 20.2 °F 28.4 °F 93% 29.48 in 0.8 mi East 12.7 mph - 0.02 in Snow Light Snow
8:43 PM 30.2 °F 18.5 °F 28.4 °F 93% 29.48 in 1.5 mi East 17.3 mph 24.2 mph 0.02 in Snow Light Snow
8:53 PM 30.0 °F 18.7 °F 28.9 °F 96% 29.52 in 2.0 mi East 16.1 mph 24.2 mph 0.02 in Snow Light Snow
9:06 PM 30.2 °F 18.5 °F 28.4 °F 93% 29.47 in 1.5 mi ESE 17.3 mph 24.2 mph 0.00 in Snow Light Snow
9:34 PM 30.2 °F 18.5 °F 28.4 °F 93% 29.45 in 2.0 mi East 17.3 mph - 0.00 in Snow Light Snow
9:48 PM 30.2 °F 19.3 °F 28.4 °F 93% 29.43 in 1.2 mi East 15.0 mph 23.0 mph 0.01 in Snow Light Snow
9:53 PM 30.0 °F 18.3 °F 30.0 °F 100% 29.46 in 1.2 mi East 17.3 mph 24.2 mph 0.01 in Snow Light Snow
10:36 PM 30.2 °F 19.3 °F 30.2 °F 100% 29.40 in 0.8 mi East 15.0 mph 23.0 mph 0.00 in Snow Light Snow
10:53 PM 30.9 °F 20.7 °F 30.0 °F 96% 29.42 in 0.8 mi East 13.8 mph - 0.00 in Snow Light Snow
11:53 PM 30.9 °F 21.7 °F 30.9 °F 100% 29.39 in 0.2 mi East 11.5 mph - 0.02 in Fog , Snow Light Snow